Regional Weather Roundup
Issued by NWS Sterling, VA

Home | Current Version | Previous Version | Graphics & Text | Print | Product List | Glossary On
Versions: 1 2 3 4 5 6 7 8 9 10 11 12 13 14 15 16 17 18 19 20 21 22 23 24 25 26 27 28 29 30 31 32 33 34 35 36 37 38 39 40 41 42 43 44 45 46 47 48 49 50
970
ASUS41 KLWX 161311
RWRLWX

REGIONAL WEATHER ROUNDUP
NATIONAL WEATHER SERVICE BALTIMORE MD/WASHINGTON DC
900 AM EDT MON OCT 16 2017

Note: "FAIR" indicates few or no clouds below 12,000 feet
with no significant weather and/or obstructions to visibility.
 TC=TEMPERATURE CELSIUS

 * =Non NWS site. Station does not report precipitation (e.g. rain,
    snow, etc.), thunder, or fog.

DCZ001-MDZ009-015-VAZ040>042-051-053>054-161400-
WASHINGTON METRO

CITY           SKY/WX    TMP DP  RH WIND       PRES   REMARKS
WASHINGTON NAT CLOUDY    62  53  72 NW10      30.07R
DULLES         CLOUDY    59  50  72 NW13      30.07R
ANDREWS AFB    CLOUDY    60  52  74 NW13      30.04R
FT BELVOIR     CLOUDY    60  53  78 NW7       30.06R
QUANTICO       CLOUDY    61  57  87 NW7       30.07R
COLLEGE PARK*  CLOUDY    60  51  73 NW6       30.05R
LEESBURG*      CLOUDY    61  50  67 N16G26    30.08R
MANASSAS*      CLOUDY    59  50  72 NW13      30.08R
GAITHERSBURG*  CLOUDY    58  50  75 NW8       30.07R

$$

MDZ006>007-011-014-161400-
BALTIMORE METRO

CITY           SKY/WX    TMP DP  RH WIND       PRES   REMARKS
BWI AIRPORT    CLOUDY    60  52  74 NW9G17    30.05R
MD SCIENCE CTR   N/A     63  50  62 MISG      30.05R
MARTIN STATE   PTSUNNY   61  54  77 NW13      30.06R
ANNAPOLIS      CLOUDY    62  58  86 W7        30.04R
FORT MEADE*    CLOUDY    57  55  94 W3        30.07R

$$

MDZ012-015-019>023-161400-
MARYLAND EASTERN SHORE

CITY           SKY/WX    TMP DP  RH WIND       PRES   REMARKS
OCEAN CITY     CLOUDY    60  56  86 N12       30.00R
SALISBURY      CLOUDY    59  56  89 N8        30.01R
CAMBRIDGE*     PTSUNNY   61  59  94 CALM      30.02R FOG
EASTON*        LGT RAIN  61  59  94 CALM      30.05R

$$

MDZ017>025-161400-
SOUTHERN MARYLAND

CITY           SKY/WX    TMP DP  RH WIND       PRES   REMARKS
PATUXENT RIVER LGT RAIN  61  58  90 NW13      30.05R
ST INIGOES     LGT RAIN  60  58  92 W8        30.05R
LEONARDTOWN*   NOT AVBL

$$

MDZ003>005-161400-
NORTH CENTRAL MARYLAND

CITY           SKY/WX    TMP DP  RH WIND       PRES   REMARKS
FREDERICK*     PTSUNNY   61  45  55 N15G21    30.10R
HAGERSTOWN APT MOSUNNY   56  43  61 NW16      30.09R
WESTMINSTER*   CLOUDY    57  48  72 NW7       30.06R

$$

MDZ501>502-161400-
WESTERN MARYLAND

CITY           SKY/WX    TMP DP  RH WIND       PRES   REMARKS
OAKLAND*       CLOUDY    39  37  93 NW8       30.11R
CUMBERLAND*    PTSUNNY   54  41  62 NW8G20    30.18R

$$

VAZ025>031-161400-
SHENANDOAH VALLEY

CITY           SKY/WX    TMP DP  RH WIND       PRES   REMARKS
WINCHESTER*    CLOUDY    54  43  66 NW14G20   30.10R
FRONT ROYAL*   CLOUDY    57  43  58 NW6       30.10R
LURAY*         CLOUDY    59  43  55 NW13G20   30.11R
NEW MARKET*    CLOUDY    58  42  56 N5        30.11R
STAUNTON*      CLOUDY    56  43  61 NW9       30.11S
WAYNESBORO*    CLOUDY    55  46  69 NW13      30.10R

$$

WVZ021-048>050-054>055-161400-
EASTERN WEST VIRGINIA PANHANDLE

CITY           SKY/WX    TMP DP  RH WIND       PRES   REMARKS
MARTINSBURG    CLOUDY    56  42  59 N16G23    30.09R
PETERSBURG*    CLOUDY    56  42  59 NW9       30.14R

$$

VAZ036>039-050-161400-
CENTRAL FOOTHILLS

CITY           SKY/WX    TMP DP  RH WIND       PRES   REMARKS
CHARLOTTESVILL CLOUDY    60  51  72 N6        30.07R
CULPEPER*      CLOUDY    60  47  62 N8        30.09R
ORANGE*        CLOUDY    59  50  72 CALM      30.08R
GORDONSVILLE*  PTSUNNY   60  55  83 NW5       30.07R
WARRENTON*     CLOUDY    60  45  57 NW12      30.07R

$$

VAZ055>057-161400-
NORTH AND CENTRAL PIEDMONT

CITY           SKY/WX    TMP DP  RH WIND       PRES   REMARKS
FREDERICKSBRG* PTSUNNY   60  56  85 NW5       30.06R
STAFFORD*      PTSUNNY   58  56  95 N7        30.10S

$$

NCZ024-NYZ072-PAZ021-071-VAZ022-071-161400-
OTHER REGIONAL OBSERVATIONS

CITY           SKY/WX    TMP DP  RH WIND       PRES   REMARKS
NEW YORK CITY  CLOUDY    57  41  55 VRB7      30.00R
PHILADELPHIA   PTSUNNY   60  48  64 N12       29.99R
PITTSBURGH     LGT RAIN  48  45  89 NW8       30.19R
ROANOKE        CLOUDY    56  43  61 NW13G22   30.14R
RICHMOND       LGT RAIN  58  55  90 N9        30.06R
RALEIGH        CLOUDY    67  61  81 N8        30.04R

$$

ANZ530>537-161400-
MARINE OBSERVATIONS

STATION/POSITION TIME  TEMP    WIND        PRES
                       AIR SEA DIR/SP/G
                 (UTC) (F)     (DEG/KT/KT) (MB)
THOMAS PT LIGHT  1300   62 70  300/ 15/ 16   N/A
BALT KEY BRIDGE  1242   62     340/ 18/ 23 1016.6R
COVE POINT       1242   63     350/ 17/ 21 1017.6R
LEWISETTA        1242   60 70  360/  7/ 11 1017.2R
SOLOMONS ISLAND  1242   61 72  330/  6/ 10 1017.0R
PINEY POINT      1242          340/ 12/ 14   N/A

$$





USA.gov is the U.S. government's official web portal to all federal, state and local government web resources and services.